Regional Weather Roundup
Issued by NWS

Home | Current Version | Previous Version | Text Only | Print | Product List | Glossary On
Versions: 1 2 3 4 5 6 7 8 9 10 11 12 13 14 15 16 17 18 19 20 21 22 23 24 25 26 27 28 29 30 31 32 33 34 35 36 37 38 39 40 41 42 43 44 45 46 47 48 49 50
000
ASUS45 KREV 221110
RWRNV
NEVADA REGIONAL WEATHER ROUNDUP
NATIONAL WEATHER SERVICE RENO NV
400 AM PDT SAT JUL 22 2017

NOTE: "FAIR" INDICATES FEW OR NO CLOUDS BELOW 12,000 FEET WITH NO
SIGNIFICANT WEATHER AND/OR OBSTRUCTIONS TO VISIBILITY.

NVZ001-003-004-221200-
WESTERN NEVADA

CITY           SKY/WX    TMP DP  RH WIND       PRES   REMARKS
RENO           CLEAR     65  40  39 S5        30.13S
CARSON CITY    FAIR      57  36  44 CALM      30.15S
MINDEN         FAIR      50  36  57 MISG      30.16R
FALLON         CLEAR     65  31  28 CALM      30.06R
LOVELOCK       CLEAR     59  24  26 CALM      30.06S
HAWTHORNE      CLEAR     70  25  18 SW5       30.07S
$$

NVZ002-CAZ072-073-221200-
NORTHERN AND CENTRAL SIERRA

CITY           SKY/WX    TMP DP  RH WIND       PRES   REMARKS
S. LAKE TAHOE  CLEAR     47  40  76 CALM      30.25S
TRUCKEE        CLEAR     41  36  81 CALM      30.25S
SQUAW VLY 8000   N/A     55  37  50 E2          N/A
SUSANVILLE     CLEAR     55  37  50 CALM      30.13R
BLUE CANYON    CLEAR     69  34  27 CALM      30.16
MAMMOTH LAKES  FAIR      55  31  41 CALM      30.30S
BRIDGEPORT     FAIR      50  32  50 CALM      30.28S
$$

NVZ030-031-036-221200-
NORTHERN NEVADA

CITY           SKY/WX    TMP DP  RH WIND       PRES   REMARKS
ELKO           CLEAR     55  37  50 CALM      30.15S
WINNEMUCCA     CLEAR     69  33  26 CALM      30.11R
WENDOVER       CLEAR     73  34  23 CALM      30.08S
$$

NVZ035-037-221200-
CENTRAL NEVADA

CITY           SKY/WX    TMP DP  RH WIND       PRES   REMARKS
ELY            CLEAR     57  38  48 NE3       30.23R
EUREKA           N/A     54  29  38 S9        30.19S
$$

NVZ013-014-221200-
SOUTH CENTRAL NEVADA

CITY           SKY/WX    TMP DP  RH WIND       PRES   REMARKS
TONOPAH        CLEAR     65  33  30 N9        30.15S
$$

NVZ017-020-022-221200-
SOUTHERN NEVADA

CITY           SKY/WX    TMP DP  RH WIND       PRES   REMARKS
LAS VEGAS      PTCLDY    88  46  23 W6        29.87S
N. LAS VEGAS   PTCLDY    86  44  23 N8        29.87R
NELLIS AFB     PTCLDY    88  48  24 N5        29.86R
HENDERSON      PTCLDY    88  54  31 S13       29.92S
MERCURY        CLEAR     76  31  19 CALM      29.96S
$$



USA.gov is the U.S. government's official web portal to all federal, state and local government web resources and services.